Tracking 29034 objects as of 25-Jun-2024
HD Live streaming from Space Station
objects crossing your sky now

QUIKSCAT

Track QUIKSCAT now!
10-day predictions
QUIKSCAT is classified as:


NORAD ID: 25789
Int'l Code: 1999-034A
Perigee: 662.0 km
Apogee: 800.2 km
Inclination: 98.4 °
Period: 99.3 minutes
Semi major axis: 7102 km
RCS: 2.9895 m2 (large)
Launch date: June 20, 1999
Source: United States (US)
Launch site: AIR FORCE WESTERN TEST RANGE (AFWTR)

Detailed snapshots of the winds swirling above the world's oceans.
Your satellite tracking list
Your tracking list is empty




NASA's NSSDC Master Catalog

Two Line Element Set (TLE):
1 25789U 99034A   24176.60483527  .00000527  00000-0  13863-3 0  9999
2 25789  98.3706  53.7356 0097280 337.7780  21.9212 14.50524286307718
Source of the keplerian elements: AFSPC